Weather History for Memphis, TN

Change the Weather History Date:

Friday, March 21, 2014

  Actual Average Record
Temperature  
Mean Temperature 57 °F 56 °F  
Max Temperature 73 °F 66 °F 84 °F (1907)
Min Temperature 41 °F 45 °F 18 °F (1876)
Degree Days  
Heating Degree Days 8 10  
Month to date heating degree days 356 270  
Since 1 July heating degree days 3182 2720  
Cooling Degree Days 0 1  
Month to date cooling degree days 0 6  
Year to date cooling degree days 0 9  
Growing Degree Days 8 (Base 50)    
Moisture  
Dew Point 33 °F    
Average Humidity 39    
Maximum Humidity 53    
Minimum Humidity 25    
Precipitation  
Precipitation 0.00 in 0.17 in 1.71 in (1985)
Month to date precipitation 2.86 3.38  
Year to date precipitation 10.98 11.75  
Snow  
Snow 0.00 in 0.00 in 8.70 in (1968)
Month to date snowfall 0.5 0.4  
Since 1 July snowfall 0.8 3.8  
Snow Depth 0.00 in    
Sea Level Pressure  
Sea Level Pressure 30.00 in    
Wind  
Wind Speed 9 mph (SSW)    
Max Wind Speed 18 mph    
Max Gust Speed 23 mph    
Visibility 10 miles    
Events      
T = Trace of Precipitation, MM = Missing Value Source: NWS Daily Summary

Daily Weather History Graph

Daily Weather History Graph

Search for Another Location

Airport:

Trip Planner

Search our weather history database for the weather conditions in past years. The results will help you decide how hot, cold, wet, or windy it might be!

Date:

Astronomy

Mar. 21, 2014 Rise Set
Actual Time 7:02 AM CDT 7:12 PM CDT
Civil Twilight 6:36 AM CDT 7:37 PM CDT
Nautical Twilight 6:07 AM CDT 8:07 PM CDT
Astronomical Twilight 5:37 AM CDT 8:37 PM CDT
Moon No Moon Rise 10:04 AM CDT (3/21)
Length of Visible Light 13h 00m
Length of Day
12h 10m
Waning Gibbous, 75% of the Moon is Illuminated
Mar 21
Waning Gibbous
Mar 23
Last Quarter
Mar 30
New
Apr 7
First Quarter
Apr 15
Full

Hourly Weather History & Observations

Time (CDT) Temp. Windchill Dew Point Humidity Pressure Visibility Wind Dir Wind Speed Gust Speed Precip Events Conditions
12:54 AM 48.0 °F - 27.0 °F 44% 30.08 in 10.0 mi South 3.5 mph - N/A   Clear
1:54 AM 46.9 °F - 27.0 °F 46% 30.07 in 10.0 mi South 8.1 mph - N/A   Clear
2:54 AM 43.0 °F 39.5 °F 27.0 °F 53% 30.04 in 10.0 mi SSW 5.8 mph - N/A   Partly Cloudy
3:54 AM 46.9 °F - 27.0 °F 46% 30.04 in 10.0 mi SSW 6.9 mph - N/A   Scattered Clouds
4:54 AM 46.9 °F - 27.0 °F 46% 30.03 in 10.0 mi South 10.4 mph - N/A   Partly Cloudy
5:54 AM 46.0 °F 41.9 °F 27.0 °F 47% 30.04 in 10.0 mi South 8.1 mph - N/A   Partly Cloudy
6:54 AM 44.1 °F 41.5 °F 28.0 °F 53% 30.03 in 10.0 mi South 4.6 mph - N/A   Scattered Clouds
7:54 AM 46.9 °F - 28.9 °F 50% 30.05 in 10.0 mi South 4.6 mph - N/A   Scattered Clouds
8:54 AM 54.0 °F - 30.0 °F 40% 30.05 in 10.0 mi South 13.8 mph - N/A   Overcast
9:54 AM 61.0 °F - 28.9 °F 30% 30.05 in 10.0 mi South 12.7 mph - N/A   Overcast
10:54 AM 66.0 °F - 30.9 °F 27% 30.04 in 10.0 mi South 11.5 mph - N/A   Overcast
11:54 AM 69.1 °F - 32.0 °F 25% 30.02 in 10.0 mi SSW 10.4 mph 23.0 mph N/A   Overcast
12:54 PM 69.1 °F - 32.0 °F 25% 30.01 in 10.0 mi South 13.8 mph - N/A   Overcast
1:54 PM 70.0 °F - 35.1 °F 28% 29.98 in 10.0 mi South 12.7 mph 17.3 mph N/A   Overcast
2:54 PM 71.1 °F - 35.1 °F 27% 29.96 in 10.0 mi WSW 13.8 mph 21.9 mph N/A   Overcast
3:54 PM 71.1 °F - 37.0 °F 29% 29.94 in 10.0 mi SW 13.8 mph - N/A   Overcast
4:54 PM 72.0 °F - 37.9 °F 29% 29.93 in 10.0 mi SW 12.7 mph 19.6 mph N/A   Overcast
5:54 PM 70.0 °F - 39.0 °F 32% 29.91 in 10.0 mi SSW 12.7 mph 21.9 mph N/A   Mostly Cloudy
6:54 PM 66.9 °F - 39.0 °F 36% 29.90 in 10.0 mi South 11.5 mph - N/A   Mostly Cloudy
7:54 PM 66.9 °F - 39.0 °F 36% 29.92 in 10.0 mi SSW 4.6 mph - N/A   Mostly Cloudy
8:54 PM 64.0 °F - 39.0 °F 40% 29.94 in 10.0 mi Calm Calm - N/A   Scattered Clouds
9:54 PM 60.1 °F - 39.0 °F 46% 29.95 in 10.0 mi Calm Calm - N/A   Scattered Clouds
10:54 PM 57.0 °F - 39.9 °F 53% 29.95 in 10.0 mi South 6.9 mph - N/A   Scattered Clouds
11:54 PM 59.0 °F - 39.9 °F 49% 29.94 in 10.0 mi South 5.8 mph - N/A   Partly Cloudy